COSMOS 1275 DEB, 17639

Orbit data source: Space-Track

COSMOS 1275 DEB, 17639 is space debris in LEO originally from a launch on Thu, 04 Jun 1981 UTC launched from the Plesetsk Missile And Space Complex (PKMTR). Debris objects in space refer to the collection of defunct objects orbiting the Earth. Examples of debris include non-operational satellites, rocket bodies, and fragments generated from explosions, collisions, or faulty payload assembly.

Loading next visibility...
Identifier
17639, 1981-053LJ
Orbit
LEO
Country
Flag of CISCIS
Related business
Manufacturer
Unknown
Mission
Spacecraft
Bus & Motor
Unknown
Mass
Unknown
Launch date (UTC)
1981-06-04 (45 years ago)
Launch vehicle
Unknown
Launch site
Plesetsk Missile And Space Complex (PKMTR)
Object type
Payload
Rocket body
Debris
Shape & HBR
Unknown shape, 0.1 m
Radar Cross Section
Medium (>0.1 m² and <1 m²)

Expand to show TLE details & history
Last TLE update: 5 hours ago

TLE from 5 hours ago
0 COSMOS 1275 DEB
1 17639U 81053LJ  26255.20786708  .00000844  00000-0  97512-3 0  9994
2 17639  82.9954  53.7865 0153728 292.6735 245.6106 13.63351840 42823
Epoch: 2026-09-12T04:59Z
TLE epoch observation values (Epoch: 2026-09-12T04:59:19.715Z)
Latitude
3.18798°
Longitude
167.34409°
Altitude
1,074.495 km
Speed
7.291 km/s
True Right ascension
15h 33m 35s
True Declination
3° 10' 11"
Sunlit
Object was in daylight at epoch
Visualization orbit readout
Latitude
Unknown
Longitude
Unknown
Altitude
Unknown
Speed
Unknown
Apparent Right ascension
Unknown
Apparent Declination
Unknown
Sunlit
N/A
Visualization observer readout
Local Sidereal Time
01:59:20
Azimuth
Unknown
Elevation
Unknown
Doppler factor
Unknown
Orbital elements
Apogee altitude
1,134.438 km
Perigee altitude
906.957 km
Semi-major axis
7,398.835 km
Eccentricity
0.01537
Inclination
82.9954°
RAAN
53.7865°
Arg. of periapsis
292.6735°
True anomaly
244.01905°
Mean anomaly
245.6106°
Eccentric anomaly
244.81354°
Mean motion
3.41034 °/min
Orbital period
105.56 mins
BSTAR
0.00097512
Loading maneuver chart data...
Computing Atmospheric mass density...
Loading historical data...
Loading historical data...
Loading historical data...
Loading historical data...
Loading historical data...
Loading historical data...
Loading historical data...

Documentation

Showing up to 5 results
|